| time (UTC) | temp F | wind direction | speed MPH | gust MPH | rain 1hr in | rain 24hr in | rain mn in | humidity % | barometer mb |
| 20260505031731 | 54 | 158 | 2.0 | 3.0 | 0.00 | 0.00 | 0.00 | 63 | 1015.9 |
| 20260505030230 | 54 | 175 | 2.0 | 3.0 | 0.00 | 0.00 | 0.00 | 64 | 1015.8 |
| 20260505024735 | 54 | 162 | 2.0 | 3.0 | 0.00 | 0.00 | 0.00 | 69 | 1015.9 |
| 20260505023228 | 55 | 159 | 1.0 | 3.0 | 0.00 | 0.00 | 0.00 | 76 | 1015.9 |
| 20260505021739 | 55 | 144 | 2.0 | 3.0 | 0.00 | 0.00 | 0.00 | 76 | 1016.0 |
| 20260505014739 | 55 | 151 | 2.0 | 3.0 | 0.00 | 0.00 | 0.00 | 75 | 1016.1 |
| 20260505013234 | 55 | 158 | 2.0 | 3.0 | 0.00 | 0.00 | 0.00 | 74 | 1016.2 |
| 20260505010228 | 56 | 148 | 2.0 | 5.0 | 0.00 | 0.00 | 0.00 | 72 | 1016.3 |
| 20260505004729 | 56 | 147 | 2.0 | 3.0 | 0.00 | 0.00 | 0.00 | 70 | 1016.4 |
| 20260505003229 | 56 | 154 | 2.0 | 4.0 | 0.00 | 0.00 | 0.00 | 68 | 1016.4 |
| 20260505001728 | 56 | 161 | 1.0 | 4.0 | 0.00 | 0.00 | 0.00 | 63 | 1016.5 |
| 20260504234727 | 55 | 149 | 0.0 | 2.0 | 0.00 | 0.00 | 0.00 | 60 | 1016.8 |
| 20260504233224 | 55 | 152 | 1.0 | 2.0 | 0.00 | 0.00 | 0.00 | 59 | 1016.8 |
| 20260504231718 | 55 | 161 | 0.0 | 2.0 | 0.00 | 0.00 | 0.00 | 59 | 1016.8 |
| 20260504230218 | 55 | 151 | 1.0 | 3.0 | 0.00 | 0.00 | 0.00 | 61 | 1017.1 |
| 20260504224716 | 55 | 157 | 2.0 | 4.0 | 0.00 | 0.00 | 0.00 | 62 | 1017.2 |
| 20260504223218 | 55 | 149 | 1.0 | 3.0 | 0.00 | 0.00 | 0.00 | 60 | 1017.3 |
| 20260504221712 | 55 | 158 | 2.0 | 3.0 | 0.00 | 0.00 | 0.00 | 58 | 1017.4 |
| 20260504220209 | 55 | 151 | 2.0 | 2.0 | 0.00 | 0.00 | 0.00 | 55 | 1017.5 |
| 20260504214708 | 55 | 158 | 0.0 | 0.0 | 0.00 | 0.00 | 0.00 | 53 | 1017.5 |
| 20260504213204 | 55 | 148 | 0.0 | 0.0 | 0.00 | 0.00 | 0.00 | 54 | 1017.5 |
| 20260504211704 | 56 | 155 | 0.0 | 0.0 | 0.00 | 0.00 | 0.00 | 53 | 1017.4 |
| 20260504210207 | 56 | 148 | 0.0 | 2.0 | 0.00 | 0.00 | 0.00 | 53 | 1017.5 |
| 20260504204704 | 56 | 159 | 0.0 | 0.0 | 0.00 | 0.00 | 0.00 | 50 | 1017.5 |
| 20260504203202 | 56 | 141 | 0.0 | 0.0 | 0.00 | 0.00 | 0.00 | 52 | 1017.5 |
| 20260504194708 | 57 | 161 | 0.0 | 3.0 | 0.00 | 0.00 | 0.00 | 53 | 1017.8 |
| 20260504193203 | 57 | 165 | 2.0 | 2.0 | 0.00 | 0.00 | 0.00 | 54 | 1017.5 |
| 20260504190203 | 57 | 145 | 1.0 | 2.0 | 0.00 | 0.00 | 0.00 | 61 | 1017.5 |
| 20260504184704 | 58 | 149 | 1.0 | 2.0 | 0.00 | 0.00 | 0.00 | 63 | 1017.4 |
| 20260504183202 | 58 | 148 | 1.0 | 2.0 | 0.00 | 0.00 | 0.00 | 63 | 1017.2 |
| 20260504181703 | 58 | 144 | 0.0 | 4.0 | 0.00 | 0.00 | 0.00 | 62 | 1017.2 |
| 20260504180204 | 59 | 142 | 1.0 | 3.0 | 0.00 | 0.00 | 0.00 | 62 | 1017.0 |
| 20260504174701 | 60 | 266 | 0.0 | 2.0 | 0.00 | 0.00 | 0.00 | 60 | 1017.0 |
| 20260504173158 | 60 | 248 | 1.0 | 3.0 | 0.00 | 0.00 | 0.00 | 60 | 1016.9 |
| 20260504170159 | 62 | 247 | 1.0 | 4.0 | 0.00 | 0.00 | 0.00 | 57 | 1016.8 |
| 20260504150150 | 68 | 324 | 5.0 | 12.0 | 0.00 | 0.00 | 0.00 | 29 | 1016.7 |
| 20260504140142 | 68 | 11 | 3.0 | 12.0 | 0.00 | 0.00 | 0.00 | 31 | 1016.8 |
| 20260504130137 | 68 | 292 | 5.0 | 14.0 | 0.00 | 0.00 | 0.00 | 32 | 1017.0 |
| 20260504120132 | 65 | 354 | 0.0 | 13.0 | 0.00 | 0.00 | 0.00 | 36 | 1017.5 |
| 20260504110130 | 65 | 6 | 4.0 | 14.0 | 0.00 | 0.00 | 0.00 | 36 | 1018.2 |
| 20260504090130 | 62 | 302 | 4.0 | 10.0 | 0.00 | 0.00 | 0.00 | 41 | 1018.8 |
| 20260504081630 | 59 | 71 | 0.0 | 4.0 | 0.00 | 0.00 | 0.00 | 47 | 1018.7 |
| 20260504080132 | 59 | 282 | 2.0 | 7.0 | 0.00 | 0.00 | 0.00 | 48 | 1018.8 |
| 20260504070131 | 58 | 0 | 1.0 | 6.0 | 0.00 | 0.00 | 0.00 | 53 | 1018.5 |
| 20260504050129 | 52 | 307 | 0.0 | 3.0 | 0.00 | 0.02 | 0.00 | 64 | 1018.0 |
| 20260504044629 | 50 | 171 | 0.0 | 2.0 | 0.00 | 0.02 | 0.00 | 69 | 1017.9 |
| 20260504043129 | 49 | 82 | 0.0 | 0.0 | 0.00 | 0.03 | 0.00 | 70 | 1017.9 |
| 20260504041634 | 48 | 173 | 0.0 | 0.0 | 0.00 | 0.04 | 0.00 | 71 | 1017.8 |
| 20260504040131 | 49 | 173 | 0.0 | 0.0 | 0.00 | 0.04 | 0.00 | 70 | 1017.8 |
| 20260504034624 | 49 | 161 | 0.0 | 0.0 | 0.00 | 0.04 | 0.00 | 70 | 1017.5 |